Flag for Argentina Weather past 2 weeks in Corrientes, Corrientes, Argentina

Now
70 °F

Mostly cloudy.


Feels Like: 70 °F
Forecast: 67 / 75 °F
Wind: 1 mph from Southeast

Location: Resistencia Aero.


UV Index: 3 (Moderate)

Visibility: N/A


Pressure: 29.89 "Hg

Humidity: 94%

Dew point: 68 °F

Location of CorrientesLocation

Historic Weather in Corrientes

°F

Corrientes temperature yesterday

Maximum temperature yesterday: 77 °F (at 2:00 PM)
Minimum temperature yesterday: 70 °F (at 7:00 PM)
Average temperature yesterday: 72 °F

Past Weeks' High & Low Weather Summary

 TemperatureHumidityPressure
High93 °F (Apr 7, 3:00 PM)100% (Apr 5, 12:00 AM)30.33 "Hg (Apr 5, 12:00 AM)
Low48 °F (Apr 14, 4:00 AM)37% (Apr 9, 1:00 PM)29.59 "Hg (Apr 7, 11:00 PM)
Average73 °F82%29.89 "Hg
* Reported Apr 3 10:00 PM — Apr 18 10:00 PM, Corrientes, Weather by CustomWeather, © 2014

Note: Actual official high and low records may vary slightly from our data, if they occured in-between our weather recording intervals... More about our weather records

Advertising

Historic Weather Conditions — Data for Previous 24 hours

 ConditionsComfort  
Time TempWeatherWind HumidityBarometerVisibility
10:00 PM
Apr 18
72 °FDrizzle. Overcast.1 mph94%29.86 "HgN/A
9:00 PM72 °FOvercast.3 mph94%29.86 "HgN/A
8:00 PM72 °FOvercast.2 mph94%29.86 "HgN/A
7:00 PM72 °FPartly cloudy.2 mph94%29.83 "HgN/A
6:00 PM73 °FMostly cloudy.2 mph89%29.83 "HgN/A
5:00 PM73 °FMostly cloudy.2 mph89%29.83 "HgN/A
4:00 PM73 °FMostly cloudy.3 mph89%29.83 "HgN/A
3:00 PM73 °FMostly cloudy.5 mph89%29.83 "HgN/A
2:00 PM73 °FMore clouds than sun.6 mph89%29.86 "HgN/A
1:00 PM72 °FMostly cloudy.7 mph94%29.89 "HgN/A
12:00 PM73 °FMore clouds than sun.5 mph89%29.92 "HgN/A
11:00 AM73 °FScattered clouds.3 mph89%29.92 "HgN/A
10:00 AM72 °FMore clouds than sun.2 mph94%29.92 "HgN/A
9:00 AM70 °FPartly sunny.3 mph100%29.92 "HgN/A
8:00 AM68 °FPartly sunny.No wind100%29.89 "HgN/A
7:00 AM68 °FPartly sunny.2 mph100%29.86 "HgN/A
6:00 AM68 °FRain. Mostly cloudy.2 mph100%29.86 "Hg4 mi
5:00 AM68 °FMostly cloudy.3 mph100%29.86 "HgN/A
4:00 AM68 °FThunderstorms. Passing clouds.2 mph100%29.86 "HgN/A
3:00 AM70 °FThunderstorms. Mostly cloudy.2 mph94%29.86 "Hg5 mi
2:00 AM68 °FMostly cloudy.2 mph100%29.89 "HgN/A
1:00 AM70 °FThunderstorms. Partly cloudy.No wind94%29.89 "HgN/A
12:00 AM70 °FThunderstorms. Mostly cloudy.3 mph94%29.92 "Hg5 mi
11:00 PM
Apr 17
70 °FPassing clouds.3 mph94%29.92 "HgN/A
Weather by CustomWeather, © 2014

See weather overview